Regional Weather Roundup
Issued by NWS Newport/Morehead, NC

Current Version | Previous Version | Graphics & Text | Print | Product List | Glossary Off
Versions: 1 2 3 4 5 6 7 8 9 10 11 12 13 14 15 16 17 18 19 20 21 22 23 24 25 26 27 28 29 30 31 32 33 34 35 36 37 38 39 40 41 42 43 44 45 46 47 48 49 50

000
ASUS42 KMHX 210525
RWRMHX
WEATHER ROUNDUP FOR EASTERN NORTH CAROLINA
NATIONAL WEATHER SERVICE NEWPORT/MOREHEAD CITY NC
100 AM EDT SAT OCT 21 2017

NOTE: "FAIR" INDICATES FEW OR NO CLOUDS BELOW 12,000 FEET
WITH NO SIGNIFICANT WEATHER AND/OR OBSTRUCTIONS TO VISIBILITY

NCZ015>017-031-032-045>047-102-103-210600-
NORTH COAST

CITY           SKY/WX    TMP DP  RH WIND       PRES   REMARKS
EDENTON        CLEAR     56  55  94 CALM      30.26S
ELIZABETH CITY CLEAR     57  57 100 CALM      30.26R
KITTY HAWK     CLEAR     62  62  99 CALM      30.25R
MANTEO         FOG      N/A N/A N/A CALM      30.26S VSB 3/4

$$

NCZ045>047-081-094-103-104-210600-
CENTRAL COAST

CITY           SKY/WX    TMP DP  RH WIND       PRES   REMARKS
FRISCO         CLEAR     60  59  96 NE3       30.25S

$$

NCZ095-097-098-100-101-210600-
SOUTHERN COAST

CITY           SKY/WX    TMP DP  RH WIND       PRES   REMARKS
BEAUFORT       CLEAR     56  56 100 CALM      30.25S
CEDAR ISLAND   NOT AVBL
JACKSONVILLE   CLEAR     55  55 100 CALM      30.25R
PINEY ISLAND     N/A    N/A N/A N/A CALM      30.25S
WILMINGTON     CLEAR     56  54  93 CALM      30.25S


$$

NCZ011>013-027>030-043-044-078>080-089-090>093-098-210600-
COASTAL PLAIN

CITY           SKY/WX    TMP DP  RH WIND       PRES   REMARKS
AHOSKIE        CLEAR     51  51 100 CALM      30.26S FOG
CLINTON        CLEAR     53  53  99 CALM      30.26R
ELIZABETHTOWN  NOT AVBL
GOLDSBORO      CLEAR     55  51  87 CALM      30.24R FOG
GREENVILLE     FOG       52  52 100 CALM      30.26S VSB 1/4
HAVELOCK       CLEAR     56  55  97 CALM      30.26S
KENANSVILLE    CLEAR     48  48 100 CALM      30.26S
KINSTON        CLEAR     51  49  95 CALM      30.27R
NEW BERN       CLEAR     55  55 100 CALM      30.27R
RICHLANDS      CLEAR     50  50 100 CALM      30.26R
ROCKY MOUNT    CLEAR     53  53 100 CALM      30.26S FOG
WASHINGTON     CLEAR     53  51  94 CALM      30.26S
WHITEVILLE     PTCLDY    55  54  95 CALM      30.24S

$$

AMZ130-135-150-152-154-156-158-170-250-252-270-ANZ085-086-088-633-658-670-210600-
MARINE OBSERVATIONS

STATION/POSITION TIME  TEMP    WIND        PRES    WAVE   SWELL
                       AIR SEA DIR/SP/G            HT/PER HT/PER
                 (UTC) (F)     (DEG/KT/KT) (MB)    (FT/S) (FT/S)
CHESAPEAKE LIGHT NOT AVBL
64 E VA BEACH    0450   67 67  280/  2/  2 1024.8    3/ 9   2/ 9
DUCK             0500   68 70   70/  4/  4 1024.1
2 E DUCK         0500      70                N/A     2/ 9
OREGON INLET     0500   63 70   CALM  /  1 1024.2
13E OREGON INLT  0448      71                N/A     2/ 9   2/ 9
HATTERAS CG      0500   67 71   40/  4/  5 1024.1
DIAMOND BUOY     0450   72 81   10/  8/ 10 1024.0    3/ 8   3/ 8
CAPE LOOKOUT     0500   69        CALM     1024.0
BEAUFORT LAB     0500   64 72  350/  3/  3 1024.5
30 SE NEW RVR IN 0508   74     120/  4/  6 1024.0
30 SE NEW RVR IN NOT AVBL
27 SE WRIGHTSVLE 0508   73 76  220/  2/  6 1024.2
5 SE WRIGHTSVLE  0508   72 74  270/  6/  8 1024.2
225 S CAPE HAT   0450   77 80   60/  6/ 10 1022.6    5/ 8   5/ 8
41 SE CHARLESTON 0510   75 80  140/  2/  4 1023.0

$$




USA.gov is the U.S. government's official web portal to all federal, state and local government web resources and services.